Wetterdaten: Freitag, 27.03.2015
Datum Zeit Temp. A. Feuchte A. Luftdruck Regen Wind Richtung Richtung Sonnenschein ET UV Solar Taupunkt Windchill Windben Empfang
27.03.2015 00:00 5,2 C 86 % 1010,6 hPa 0,3 l/m 0,7 km/h (0 Bft) S 179 0 min 0,000 mm 0,0 UV-I 0 W/m 3,1 C 5,2 C 4,0 km/h (1 Bft) 0,00 %
27.03.2015 00:15 5,1 C 85 % 1010,8 hPa 0,0 l/m 1,8 km/h (1 Bft) SW 216 0 min 0,000 mm 0,0 UV-I 0 W/m 2,8 C 5,1 C 4,0 km/h (1 Bft) 0,00 %
27.03.2015 00:30 5,1 C 85 % 1010,9 hPa 0,3 l/m 1,4 km/h (1 Bft) W-SW 251 0 min 0,000 mm 0,0 UV-I 0 W/m 2,8 C 5,1 C 4,0 km/h (1 Bft) 0,00 %
27.03.2015 00:45 5,0 C 86 % 1010,8 hPa 0,3 l/m 0,7 km/h (0 Bft) S-SW 206 0 min 0,000 mm 0,0 UV-I 0 W/m 2,9 C 5,0 C 4,0 km/h (1 Bft) 0,00 %
27.03.2015 01:00 4,9 C 86 % 1010,9 hPa 0,3 l/m 1,8 km/h (1 Bft) S-SW 209 0 min 0,000 mm 0,0 UV-I 0 W/m 2,8 C 4,9 C 4,0 km/h (1 Bft) 0,00 %
27.03.2015 01:15 4,8 C 86 % 1010,9 hPa 0,3 l/m 4,3 km/h (1 Bft) W-SW 256 0 min 0,000 mm 0,0 UV-I 0 W/m 2,7 C 4,8 C 7,9 km/h (2 Bft) 0,00 %
27.03.2015 01:30 4,8 C 86 % 1010,9 hPa 0,0 l/m 0,0 km/h (0 Bft) S 183 0 min 0,000 mm 0,0 UV-I 0 W/m 2,7 C 4,8 C 0,0 km/h (0 Bft) 0,00 %
27.03.2015 01:45 4,7 C 86 % 1011,0 hPa 0,0 l/m 0,0 km/h (0 Bft) S 181 0 min 0,000 mm 0,0 UV-I 0 W/m 2,6 C 4,7 C 0,0 km/h (0 Bft) 0,00 %
27.03.2015 02:00 4,7 C 86 % 1011,0 hPa 0,3 l/m 0,4 km/h (0 Bft) SW 227 0 min 0,000 mm 0,0 UV-I 0 W/m 2,6 C 4,7 C 4,0 km/h (1 Bft) 0,00 %
27.03.2015 02:15 4,7 C 87 % 1011,1 hPa 0,3 l/m 0,0 km/h (0 Bft) SW 225 0 min 0,000 mm 0,0 UV-I 0 W/m 2,7 C 4,7 C 0,0 km/h (0 Bft) 0,00 %
27.03.2015 02:30 4,8 C 87 % 1011,1 hPa 0,0 l/m 0,0 km/h (0 Bft) O 85 0 min 0,000 mm 0,0 UV-I 0 W/m 2,8 C 4,8 C 0,0 km/h (0 Bft) 0,00 %
27.03.2015 02:45 4,8 C 87 % 1011,1 hPa 0,3 l/m 0,0 km/h (0 Bft) S-SW 196 0 min 0,000 mm 0,0 UV-I 0 W/m 2,8 C 4,8 C 0,0 km/h (0 Bft) 0,00 %
27.03.2015 03:00 4,8 C 87 % 1011,0 hPa 0,3 l/m 0,0 km/h (0 Bft) W-SW 255 0 min 0,000 mm 0,0 UV-I 0 W/m 2,8 C 4,8 C 0,0 km/h (0 Bft) 0,00 %
27.03.2015 03:15 4,7 C 86 % 1011,0 hPa 0,6 l/m 0,0 km/h (0 Bft) O-SO 121 0 min 0,000 mm 0,0 UV-I 0 W/m 2,6 C 4,7 C 0,0 km/h (0 Bft) 0,00 %
27.03.2015 03:30 4,6 C 86 % 1011,0 hPa 0,3 l/m 0,4 km/h (0 Bft) W-SW 253 0 min 0,000 mm 0,0 UV-I 0 W/m 2,5 C 4,6 C 4,0 km/h (1 Bft) 0,00 %
27.03.2015 03:45 4,5 C 86 % 1011,3 hPa 0,3 l/m 0,0 km/h (0 Bft) SO 133 0 min 0,000 mm 0,0 UV-I 0 W/m 2,4 C 4,5 C 0,0 km/h (0 Bft) 0,00 %
27.03.2015 04:00 4,4 C 87 % 1011,3 hPa 0,0 l/m 0,0 km/h (0 Bft) S 183 0 min 0,000 mm 0,0 UV-I 0 W/m 2,4 C 4,4 C 0,0 km/h (0 Bft) 0,00 %
27.03.2015 04:15 4,4 C 87 % 1011,5 hPa 0,3 l/m 0,0 km/h (0 Bft) SW 216 0 min 0,000 mm 0,0 UV-I 0 W/m 2,4 C 4,4 C 0,0 km/h (0 Bft) 0,00 %
27.03.2015 04:30 4,4 C 87 % 1011,6 hPa 0,0 l/m 2,9 km/h (1 Bft) W-SW 253 0 min 0,000 mm 0,0 UV-I 0 W/m 2,4 C 4,4 C 4,0 km/h (1 Bft) 0,00 %
27.03.2015 04:45 4,4 C 87 % 1011,6 hPa 0,0 l/m 5,4 km/h (1 Bft) W-SW 256 0 min 0,000 mm 0,0 UV-I 0 W/m 2,4 C 4,4 C 7,9 km/h (2 Bft) 0,00 %
27.03.2015 05:00 4,4 C 88 % 1012,1 hPa 0,6 l/m 2,2 km/h (1 Bft) SW 236 0 min 0,000 mm 0,0 UV-I 0 W/m 2,6 C 4,4 C 4,0 km/h (1 Bft) 0,00 %
27.03.2015 05:15 4,2 C 88 % 1012,3 hPa 0,3 l/m 1,4 km/h (1 Bft) W-SW 239 0 min 0,000 mm 0,0 UV-I 0 W/m 2,4 C 4,2 C 4,0 km/h (1 Bft) 0,00 %
27.03.2015 05:30 4,2 C 88 % 1012,8 hPa 0,0 l/m 1,8 km/h (1 Bft) W-SW 252 0 min 0,000 mm 0,0 UV-I 0 W/m 2,4 C 4,2 C 4,0 km/h (1 Bft) 0,00 %
27.03.2015 05:45 4,1 C 88 % 1012,8 hPa 0,3 l/m 3,2 km/h (1 Bft) W-SW 256 0 min 0,000 mm 0,0 UV-I 0 W/m 2,3 C 4,1 C 4,0 km/h (1 Bft) 0,00 %
27.03.2015 06:00 4,2 C 88 % 1012,9 hPa 0,0 l/m 4,7 km/h (1 Bft) W-SW 251 0 min 0,000 mm 0,0 UV-I 0 W/m 2,4 C 4,2 C 11,9 km/h (2 Bft) 0,00 %
27.03.2015 06:15 4,1 C 87 % 1013,0 hPa 0,0 l/m 0,0 km/h (0 Bft) S-SW 201 0 min 0,000 mm 0,0 UV-I 0 W/m 2,1 C 4,1 C 0,0 km/h (0 Bft) 0,00 %
27.03.2015 06:30 4,1 C 88 % 1013,3 hPa 0,3 l/m 0,4 km/h (0 Bft) S 179 0 min 0,000 mm 0,0 UV-I 0 W/m 2,3 C 4,1 C 4,0 km/h (1 Bft) 0,00 %
27.03.2015 06:45 4,0 C 87 % 1013,8 hPa 0,0 l/m 5,4 km/h (1 Bft) W-SW 256 0 min 0,000 mm 0,0 UV-I 12 W/m 2,0 C 4,0 C 7,9 km/h (2 Bft) 0,00 %
27.03.2015 07:00 3,9 C 86 % 1013,9 hPa 0,3 l/m 5,8 km/h (2 Bft) SW 229 0 min 0,000 mm 1,0 UV-I 20 W/m 1,8 C 3,9 C 7,9 km/h (2 Bft) 0,00 %
27.03.2015 07:15 4,0 C 86 % 1014,0 hPa 0,0 l/m 6,8 km/h (2 Bft) W-SW 256 15 min 0,000 mm 1,0 UV-I 58 W/m 1,9 C 3,6 C 7,9 km/h (2 Bft) 0,00 %
27.03.2015 07:30 4,1 C 86 % 1014,1 hPa 0,0 l/m 1,8 km/h (1 Bft) W-SW 253 0 min 0,000 mm 1,0 UV-I 37 W/m 2,0 C 4,1 C 4,0 km/h (1 Bft) 0,00 %
27.03.2015 07:45 4,4 C 84 % 1014,4 hPa 0,0 l/m 0,0 km/h (0 Bft) S-SW 194 15 min 0,000 mm 1,0 UV-I 118 W/m 1,9 C 4,4 C 0,0 km/h (0 Bft) 0,00 %
27.03.2015 08:00 4,3 C 85 % 1014,6 hPa 0,0 l/m 0,0 km/h (0 Bft) W-SW 256 0 min 0,000 mm 1,0 UV-I 74 W/m 2,0 C 4,3 C 0,0 km/h (0 Bft) 0,00 %
27.03.2015 08:15 4,4 C 85 % 1014,7 hPa 0,0 l/m 2,9 km/h (1 Bft) W-SW 252 0 min 0,000 mm 1,0 UV-I 82 W/m 2,1 C 4,4 C 4,0 km/h (1 Bft) 0,00 %
27.03.2015 08:30 4,4 C 84 % 1014,8 hPa 0,0 l/m 0,0 km/h (0 Bft) W-SW 254 0 min 0,000 mm 1,0 UV-I 47 W/m 1,9 C 4,4 C 0,0 km/h (0 Bft) 0,00 %
27.03.2015 08:45 4,7 C 84 % 1014,8 hPa 0,0 l/m 0,0 km/h (0 Bft) W-SW 243 0 min 0,000 mm 1,0 UV-I 78 W/m 2,2 C 4,7 C 0,0 km/h (0 Bft) 0,00 %
27.03.2015 09:00 5,2 C 84 % 1014,7 hPa 0,0 l/m 1,4 km/h (1 Bft) W-NW 299 0 min 0,000 mm 2,0 UV-I 134 W/m 2,7 C 5,2 C 4,0 km/h (1 Bft) 0,00 %
27.03.2015 09:15 5,6 C 82 % 1015,0 hPa 0,0 l/m 7,9 km/h (2 Bft) W-SW 251 0 min 0,000 mm 1,0 UV-I 177 W/m 2,8 C 4,3 C 11,9 km/h (2 Bft) 0,00 %
27.03.2015 09:30 5,8 C 80 % 1015,1 hPa 0,0 l/m 1,8 km/h (1 Bft) W-SW 256 0 min 0,000 mm 1,0 UV-I 118 W/m 2,6 C 5,8 C 4,0 km/h (1 Bft) 0,00 %
27.03.2015 09:45 5,8 C 80 % 1015,3 hPa 0,0 l/m 0,0 km/h (0 Bft) S 175 0 min 0,000 mm 1,0 UV-I 85 W/m 2,6 C 5,8 C 0,0 km/h (0 Bft) 0,00 %
27.03.2015 10:00 5,9 C 79 % 1015,2 hPa 0,0 l/m 0,0 km/h (0 Bft) N-NW 344 0 min 0,000 mm 1,0 UV-I 118 W/m 2,5 C 5,9 C 0,0 km/h (0 Bft) 0,00 %
27.03.2015 10:15 5,9 C 78 % 1015,3 hPa 0,0 l/m 1,4 km/h (1 Bft) W-SW 243 0 min 0,000 mm 1,0 UV-I 110 W/m 2,4 C 5,9 C 4,0 km/h (1 Bft) 0,00 %
27.03.2015 10:30 5,9 C 78 % 1015,8 hPa 0,0 l/m 6,8 km/h (2 Bft) W-SW 251 0 min 0,000 mm 2,0 UV-I 66 W/m 2,4 C 5,6 C 7,9 km/h (2 Bft) 0,00 %
27.03.2015 10:45 6,8 C 74 % 1015,5 hPa 0,0 l/m 2,9 km/h (1 Bft) W-NW 284 0 min 0,000 mm 3,0 UV-I 257 W/m 2,5 C 6,8 C 4,0 km/h (1 Bft) 0,00 %
27.03.2015 11:00 7,1 C 71 % 1015,3 hPa 0,0 l/m 6,8 km/h (2 Bft) S-SW 213 0 min 0,000 mm 2,0 UV-I 273 W/m 2,2 C 6,8 C 7,9 km/h (2 Bft) 0,00 %
27.03.2015 11:15 7,5 C 72 % 1015,3 hPa 0,0 l/m 2,2 km/h (1 Bft) W-NW 289 0 min 0,000 mm 2,0 UV-I 309 W/m 2,8 C 7,5 C 11,9 km/h (2 Bft) 0,00 %
27.03.2015 11:30 7,3 C 70 % 1015,2 hPa 0,0 l/m 5,8 km/h (2 Bft) W-SW 251 0 min 0,000 mm 2,0 UV-I 248 W/m 2,2 C 7,3 C 7,9 km/h (2 Bft) 0,00 %
27.03.2015 11:45 7,5 C 68 % 1015,3 hPa 0,0 l/m 14,8 km/h (3 Bft) W 276 0 min 0,000 mm 2,0 UV-I 238 W/m 2,0 C 2,2 C 19,8 km/h (3 Bft) 0,00 %
27.03.2015 12:00 7,5 C 68 % 1015,3 hPa 0,0 l/m 0,0 km/h (0 Bft) S-SW 213 0 min 0,000 mm 2,0 UV-I 197 W/m 2,0 C 7,5 C 0,0 km/h (0 Bft) 0,00 %
27.03.2015 12:15 7,6 C 67 % 1015,3 hPa 0,0 l/m 0,4 km/h (0 Bft) W-SW 251 0 min 0,000 mm 2,0 UV-I 213 W/m 1,9 C 7,6 C 4,0 km/h (1 Bft) 0,00 %
27.03.2015 12:30 8,0 C 65 % 1015,5 hPa 0,0 l/m 6,5 km/h (2 Bft) W-SW 254 0 min 0,000 mm 2,0 UV-I 226 W/m 1,8 C 7,9 C 11,9 km/h (2 Bft) 0,00 %
27.03.2015 12:45 7,7 C 67 % 1015,5 hPa 0,0 l/m 12,2 km/h (2 Bft) SW 231 0 min 0,000 mm 1,0 UV-I 156 W/m 2,0 C 3,8 C 15,8 km/h (3 Bft) 0,00 %
27.03.2015 13:00 7,3 C 68 % 1015,5 hPa 0,0 l/m 9,4 km/h (2 Bft) W-NW 294 0 min 0,000 mm 1,0 UV-I 101 W/m 1,8 C 5,0 C 11,9 km/h (2 Bft) 0,00 %
27.03.2015 13:15 6,3 C 78 % 1015,8 hPa 0,3 l/m 1,8 km/h (1 Bft) N-NO 17 0 min 0,000 mm 2,0 UV-I 84 W/m 2,8 C 6,3 C 4,0 km/h (1 Bft) 0,00 %
27.03.2015 13:30 7,2 C 74 % 1015,5 hPa 0,0 l/m 4,3 km/h (1 Bft) W-SW 249 0 min 0,000 mm 3,0 UV-I 285 W/m 2,9 C 7,2 C 7,9 km/h (2 Bft) 0,00 %
27.03.2015 13:45 7,1 C 71 % 1015,7 hPa 0,0 l/m 1,8 km/h (1 Bft) W-SW 256 0 min 0,000 mm 2,0 UV-I 253 W/m 2,2 C 7,1 C 4,0 km/h (1 Bft) 0,00 %
27.03.2015 14:00 7,6 C 72 % 1015,5 hPa 0,0 l/m 0,4 km/h (0 Bft) S 182 0 min 0,000 mm 3,0 UV-I 216 W/m 2,9 C 7,6 C 4,0 km/h (1 Bft) 0,00 %
27.03.2015 14:15 8,0 C 70 % 1015,4 hPa 0,0 l/m 0,0 km/h (0 Bft) W-SW 251 0 min 0,000 mm 2,0 UV-I 269 W/m 2,9 C 8,0 C 0,0 km/h (0 Bft) 0,00 %
27.03.2015 14:30 8,2 C 69 % 1015,5 hPa 0,0 l/m 0,0 km/h (0 Bft) O-SO 112 0 min 0,000 mm 2,0 UV-I 237 W/m 2,9 C 8,2 C 0,0 km/h (0 Bft) 0,00 %
27.03.2015 14:45 8,4 C 67 % 1015,7 hPa 0,0 l/m 2,2 km/h (1 Bft) S 190 0 min 0,000 mm 2,0 UV-I 240 W/m 2,6 C 8,4 C 4,0 km/h (1 Bft) 0,00 %
27.03.2015 15:00 8,5 C 63 % 1015,6 hPa 0,0 l/m 2,9 km/h (1 Bft) N-NW 329 0 min 0,000 mm 2,0 UV-I 246 W/m 1,9 C 8,5 C 4,0 km/h (1 Bft) 0,00 %
27.03.2015 15:15 8,5 C 62 % 1015,5 hPa 0,0 l/m 4,0 km/h (1 Bft) S-SW 193 0 min 0,000 mm 1,0 UV-I 204 W/m 1,6 C 8,5 C 11,9 km/h (2 Bft) 0,00 %
27.03.2015 15:30 7,9 C 55 % 1015,6 hPa 0,0 l/m 4,7 km/h (1 Bft) W-SW 253 0 min 0,000 mm 1,0 UV-I 124 W/m -0,6 C 7,9 C 7,9 km/h (2 Bft) 0,00 %
27.03.2015 15:45 7,6 C 54 % 1015,9 hPa 0,0 l/m 0,4 km/h (0 Bft) O-SO 102 0 min 0,000 mm 1,0 UV-I 112 W/m -1,1 C 7,6 C 4,0 km/h (1 Bft) 0,00 %
27.03.2015 16:00 7,8 C 55 % 1016,0 hPa 0,0 l/m 2,2 km/h (1 Bft) NW 312 0 min 0,000 mm 1,0 UV-I 147 W/m -0,7 C 7,8 C 4,0 km/h (1 Bft) 0,00 %
27.03.2015 16:15 8,0 C 55 % 1016,2 hPa 0,0 l/m 4,0 km/h (1 Bft) O-SO 108 0 min 0,000 mm 1,0 UV-I 196 W/m -0,5 C 8,0 C 11,9 km/h (2 Bft) 0,00 %
27.03.2015 16:30 7,7 C 58 % 1016,4 hPa 0,0 l/m 4,7 km/h (1 Bft) O-SO 116 0 min 0,000 mm 0,0 UV-I 136 W/m -0,0 C 7,7 C 7,9 km/h (2 Bft) 0,00 %
27.03.2015 16:45 6,8 C 67 % 1017,0 hPa 0,0 l/m 0,4 km/h (0 Bft) O-SO 103 0 min 0,000 mm 0,0 UV-I 31 W/m 1,1 C 6,8 C 4,0 km/h (1 Bft) 0,00 %
27.03.2015 17:00 6,5 C 69 % 1017,1 hPa 0,0 l/m 0,4 km/h (0 Bft) SW 222 0 min 0,000 mm 0,0 UV-I 42 W/m 1,2 C 6,5 C 4,0 km/h (1 Bft) 0,00 %
27.03.2015 17:15 6,4 C 70 % 1017,2 hPa 0,0 l/m 2,2 km/h (1 Bft) O-SO 111 0 min 0,000 mm 1,0 UV-I 42 W/m 1,3 C 6,4 C 4,0 km/h (1 Bft) 0,00 %
27.03.2015 17:30 6,4 C 72 % 1017,6 hPa 0,0 l/m 1,8 km/h (1 Bft) W-NW 295 0 min 0,000 mm 0,0 UV-I 67 W/m 1,7 C 6,4 C 4,0 km/h (1 Bft) 0,00 %
27.03.2015 17:45 6,0 C 70 % 1017,9 hPa 0,0 l/m 4,7 km/h (1 Bft) W-SW 257 0 min 0,000 mm 0,0 UV-I 48 W/m 1,0 C 6,0 C 7,9 km/h (2 Bft) 0,00 %
27.03.2015 18:00 5,8 C 71 % 1018,2 hPa 0,0 l/m 6,5 km/h (2 Bft) NO 37 0 min 0,000 mm 0,0 UV-I 24 W/m 1,0 C 5,7 C 7,9 km/h (2 Bft) 0,00 %
27.03.2015 18:15 5,7 C 73 % 1018,4 hPa 0,0 l/m 4,7 km/h (1 Bft) W-SW 251 0 min 0,000 mm 0,0 UV-I 6 W/m 1,2 C 5,7 C 11,9 km/h (2 Bft) 0,00 %
27.03.2015 18:30 5,5 C 74 % 1018,7 hPa 0,0 l/m 4,0 km/h (1 Bft) NW 310 0 min 0,000 mm 0,0 UV-I 0 W/m 1,2 C 5,5 C 7,9 km/h (2 Bft) 0,00 %
27.03.2015 18:45 5,4 C 75 % 1019,2 hPa 0,0 l/m 0,0 km/h (0 Bft) W-SW 258 0 min 0,000 mm 0,0 UV-I 0 W/m 1,3 C 5,4 C 0,0 km/h (0 Bft) 0,00 %
27.03.2015 19:00 5,3 C 76 % 1019,4 hPa 0,0 l/m 5,4 km/h (1 Bft) W-SW 256 0 min 0,000 mm 0,0 UV-I 0 W/m 1,4 C 5,3 C 7,9 km/h (2 Bft) 0,00 %
27.03.2015 19:15 5,3 C 75 % 1019,3 hPa 0,0 l/m 5,4 km/h (1 Bft) W-SW 251 0 min 0,000 mm 0,0 UV-I 0 W/m 1,2 C 5,3 C 11,9 km/h (2 Bft) 0,00 %
27.03.2015 19:30 5,4 C 73 % 1019,7 hPa 0,0 l/m 0,7 km/h (0 Bft) W-SW 251 0 min 0,000 mm 0,0 UV-I 0 W/m 1,0 C 5,4 C 4,0 km/h (1 Bft) 0,00 %
27.03.2015 19:45 5,5 C 72 % 1019,9 hPa 0,0 l/m 2,2 km/h (1 Bft) S 191 0 min 0,000 mm 0,0 UV-I 0 W/m 0,9 C 5,5 C 4,0 km/h (1 Bft) 0,00 %
27.03.2015 20:00 5,6 C 72 % 1020,2 hPa 0,0 l/m 0,4 km/h (0 Bft) NO 37 0 min 0,000 mm 0,0 UV-I 0 W/m 1,0 C 5,6 C 4,0 km/h (1 Bft) 0,00 %
27.03.2015 20:15 5,6 C 72 % 1020,4 hPa 0,0 l/m 0,0 km/h (0 Bft) S 177 0 min 0,000 mm 0,0 UV-I 0 W/m 1,0 C 5,6 C 0,0 km/h (0 Bft) 0,00 %
27.03.2015 20:30 5,5 C 72 % 1020,7 hPa 0,0 l/m 1,8 km/h (1 Bft) SW 230 0 min 0,000 mm 0,0 UV-I 0 W/m 0,9 C 5,5 C 4,0 km/h (1 Bft) 0,00 %
27.03.2015 20:45 5,5 C 72 % 1020,6 hPa 0,0 l/m 0,0 km/h (0 Bft) S-SW 195 0 min 0,000 mm 0,0 UV-I 0 W/m 0,9 C 5,5 C 0,0 km/h (0 Bft) 0,00 %
27.03.2015 21:00 5,4 C 73 % 1020,9 hPa 0,0 l/m 0,0 km/h (0 Bft) N-NO 13 0 min 0,000 mm 0,0 UV-I 0 W/m 1,0 C 5,4 C 0,0 km/h (0 Bft) 0,00 %
27.03.2015 21:15 5,3 C 74 % 1020,9 hPa 0,0 l/m 0,7 km/h (0 Bft) S 185 0 min 0,000 mm 0,0 UV-I 0 W/m 1,0 C 5,3 C 4,0 km/h (1 Bft) 0,00 %
27.03.2015 21:30 5,3 C 73 % 1021,1 hPa 0,0 l/m 4,3 km/h (1 Bft) W-SW 256 0 min 0,000 mm 0,0 UV-I 0 W/m 0,9 C 5,3 C 7,9 km/h (2 Bft) 0,00 %
27.03.2015 21:45 5,4 C 72 % 1021,3 hPa 0,0 l/m 1,8 km/h (1 Bft) W-SW 245 0 min 0,000 mm 0,0 UV-I 0 W/m 0,8 C 5,4 C 4,0 km/h (1 Bft) 0,00 %
27.03.2015 22:00 5,4 C 70 % 1021,6 hPa 0,0 l/m 0,7 km/h (0 Bft) W-SW 256 0 min 0,000 mm 0,0 UV-I 0 W/m 0,4 C 5,4 C 4,0 km/h (1 Bft) 0,00 %
27.03.2015 22:15 5,2 C 71 % 1021,5 hPa 0,0 l/m 0,0 km/h (0 Bft) W-SW 252 0 min 0,000 mm 0,0 UV-I 0 W/m 0,4 C 5,2 C 0,0 km/h (0 Bft) 0,00 %
27.03.2015 22:30 5,0 C 72 % 1021,7 hPa 0,0 l/m 0,7 km/h (0 Bft) W 267 0 min 0,000 mm 0,0 UV-I 0 W/m 0,4 C 5,0 C 4,0 km/h (1 Bft) 0,00 %
27.03.2015 22:45 5,0 C 72 % 1021,9 hPa 0,0 l/m 0,4 km/h (0 Bft) NO 44 0 min 0,000 mm 0,0 UV-I 0 W/m 0,4 C 5,0 C 4,0 km/h (1 Bft) 0,00 %
27.03.2015 23:00 4,9 C 72 % 1021,9 hPa 0,0 l/m 0,4 km/h (0 Bft) W-SW 255 0 min 0,000 mm 0,0 UV-I 0 W/m 0,3 C 4,9 C 4,0 km/h (1 Bft) 0,00 %
27.03.2015 23:15 4,8 C 72 % 1022,0 hPa 0,0 l/m 0,4 km/h (0 Bft) SO 128 0 min 0,000 mm 0,0 UV-I 0 W/m 0,2 C 4,8 C 4,0 km/h (1 Bft) 0,00 %
27.03.2015 23:30 4,8 C 72 % 1021,9 hPa 0,0 l/m 0,7 km/h (0 Bft) W-SW 252 0 min 0,000 mm 0,0 UV-I 0 W/m 0,2 C 4,8 C 4,0 km/h (1 Bft) 0,00 %
27.03.2015 23:45 4,7 C 72 % 1021,8 hPa 0,0 l/m 0,0 km/h (0 Bft) S-SW 209 0 min 0,000 mm 0,0 UV-I 0 W/m 0,1 C 4,7 C 0,0 km/h (0 Bft) 0,00 %
_ Min-Zeit 07:00 15:45 00:00 - 01:30 - - - - - - 15:45 11:45 01:30 00:00
Minimum _ 3,9 C 54 % 1010,6 hPa - 0,0 km/h (0 Bft) - - - - - - -1,1 C 2,2 C 0,0 km/h (0 Bft) 0,00 %
_ Max-Zeit 15:00 05:00 23:15 03:15 11:45 - - 07:15 00:00 10:45 11:15 00:00 15:00 11:45 00:00
Maximum _ 8,5 C 88 % 1022,0 hPa 0,6 l/m 14,8 km/h
W (3 Bft)
- - 15 min 0,000 mm 3,0 UV-I 309 W/m 3,1 C 8,5 C 19,8 km/h
W (3 Bft)
0,00 %
Durchschnitt _ 5,7 C 76 % 1015,7 hPa #6,3 l/m 2,3 km/h (1 Bft) W-SW - #30 min. #0,000 mm 1,5 UV-I 140 W/m 1,8 C 5,5 C 4,6 km/h (1 Bft) 0,00 %